This is the latest recevied weather packets stored in our database for station/object LA9TLA-1. If no packets are shown the sender has not sent any weather packets the latest 10 day(s).
| Time | Temp. | Humidity | Pressure | Rain* | Wind** | Luminosity | Snow |
|---|---|---|---|---|---|---|---|
| 1777638468 | 20.56° C | 10% | 1032.3 hPa | 0 mm | - | - | - |
| 1777636666 | 19.44° C | 10% | 1032.4 hPa | 0 mm | - | - | - |
| 1777634867 | 18.89° C | 10% | 1032.8 hPa | 0 mm | - | - | - |
| 1777633065 | 18.89° C | 10% | 1033 hPa | 0 mm | - | - | - |
| 1777631266 | 18.33° C | 10% | 1033.6 hPa | 0 mm | - | - | - |
| 1777629467 | 18.33° C | 10% | 1034.3 hPa | 0 mm | - | - | - |
| 1777627666 | 18.89° C | 10% | 1034.4 hPa | 0 mm | - | - | - |
| 1777625866 | 17.78° C | 10% | 1034.5 hPa | 0 mm | - | - | - |
| 1777624065 | 17.22° C | 10% | 1034.8 hPa | 0 mm | - | - | - |
| 1777620466 | 15° C | 61% | 1035.6 hPa | 0 mm | - | - | - |
| 1777616866 | 10.56° C | 99% | 1036 hPa | 0 mm | - | - | - |
| 1777615066 | 10° C | 99% | 1036.4 hPa | 0 mm | - | - | - |
| 1777613265 | 8.89° C | 99% | 1036.4 hPa | 0 mm | - | - | - |
| 1777611468 | 7.22° C | 99% | 1036.8 hPa | 0 mm | - | - | - |
| 1777609666 | 6.11° C | 99% | 1036.6 hPa | 0 mm | - | - | - |
| 1777607869 | 5° C | 99% | 1036.8 hPa | 0 mm | - | - | - |
| 1777606066 | 5° C | 99% | 1036.6 hPa | 0 mm | - | - | - |
| 1777604265 | 5° C | 99% | 1037.1 hPa | 0 mm | - | - | - |
| 1777602468 | 4.44° C | 99% | 1037.3 hPa | 0 mm | - | - | - |
| 1777600670 | 4.44° C | 99% | 1037.4 hPa | 0 mm | - | - | - |
| 1777598869 | 4.44° C | 99% | 1037.6 hPa | 0 mm | - | - | - |
| 1777597069 | 4.44° C | 99% | 1037.9 hPa | 0 mm | - | - | - |
| 1777595265 | 4.44° C | 99% | 1037.9 hPa | 0 mm | - | - | - |
| 1777593464 | 4.44° C | 99% | 1037.9 hPa | 0 mm | - | - | - |
| 1777591667 | 4.44° C | 99% | 1038 hPa | 0 mm | - | - | - |
* Rain latest hour (hover to see other rain measurements)
** Current wind speed in m/s (hover to see current wind gust speed)